Regional Weather Roundup
Issued by NWS

Home | Current Version | Previous Version | Text Only | Print | Product List | Glossary On
Versions: 1 2 3 4 5 6 7 8 9 10 11 12 13 14 15 16 17 18 19 20 21 22 23 24 25 26 27 28 29 30 31 32 33 34 35 36 37 38 39 40 41 42 43 44 45 46 47 48 49 50
000
ASUS43 KDMX 281001
RWRIA

WEATHER ROUNDUP FOR IOWA
NATIONAL WEATHER SERVICE DES MOINES IA
500 AM CDT WED JUN 28 2017

NOTE: "FAIR" INDICATES FEW OR NO CLOUDS BELOW 12,000 FEET WITH NO
SIGNIFICANT WEATHER AND/OR OBSTRUCTIONS TO VISIBILITY.

* - THESE STATIONS ARE NOT NWS STATIONS...THUS NOT UNDER NWS
QUALITY CONTROL.  THEY ALSO DO NOT REPORT WEATHER SUCH
AS PRECIPITATION OR FOG.

IAZ001>003-012>014-020>022-031>034-043>046-281100-
   NORTHWEST IOWA

CITY           SKY/WX    TMP DP  RH WIND       PRES   REMARKS
CARROLL *      LGT RAIN  66  66 100 SW21G29   29.74S
DENISON *      CLOUDY    66  64  94 S8G15     29.72F
LE MARS *      CLOUDY    66  64  94 S16G25    29.69R
ORANGE CITY *  LGT RAIN  66  64  94 S16       29.65R
SHELDON *      CLOUDY    64  61  88 S9        29.60F
SIOUX CITY     CLOUDY    67  65  93 S12G20    29.68R
SPENCER        LGT RAIN  69  66  90 S15       29.64R
STORM LAKE *   RAIN      64  63  94 S18G28    29.66F
$$

IAZ055>058-069>071-079>083-090>094-281100-
   SOUTHWEST IOWA

CITY           SKY/WX    TMP DP  RH WIND       PRES   REMARKS
ATLANTIC *     LGT RAIN  66  64  94 S12G22    29.81F
AUDUBON *      RAIN      66  63  88 S13       29.76F
CLARINDA *     CLOUDY    66  64  94 W12G28    29.88R FOG
COUNCIL BLFS * CLOUDY    66  66 100 S18G25    29.70F
CRESTON *      LGT RAIN  68  63  83 W16       29.87R
HARLAN  *      CLOUDY    68  63  83 S17G32    29.71F
LAMONI         CLOUDY    71  65  81 SW7       29.88R
RED OAK *      LGT RAIN  66  64  94 S9        29.82F
SHENANDOAH *   LGT RAIN  64  63  94 S10       29.85F
$$

IAZ047>049-059>061-072>074-084-281100-
   CENTRAL IOWA

CITY           SKY/WX    TMP DP  RH WIND       PRES   REMARKS
AMES           TSTM      69  68  96 SW22G32   29.81R FOG
ANKENY *       LGT RAIN  70  66  88 SW9G15    29.84R
BOONE *        LGT RAIN  68  64  88 SW16G22   29.80R
CHARITON *     CLOUDY    72  64  78 SW12G20   29.86R
DES MOINES     TSTM      73  66  78 SW20G28   29.83R
GRINNELL*      LGT RAIN  68  61  78 SW10      29.81R
KNOXVILLE *    LGT RAIN  72  64  78 SW15G24   29.81R
MARSHALLTOWN   CLOUDY    70  62  76 SW21G30   29.74F
NEWTON *       CLOUDY    70  64  83 SW14G22   29.80R
PELLA *        LGT RAIN  72  63  72 SW12G17   29.82R
PERRY *        RAIN      69  66  89 SW21G26   29.81R
$$

IAZ004>006-015-016-023>025-035-036-281100-
   NORTH CENTRAL IOWA

CITY           SKY/WX    TMP DP  RH WIND       PRES   REMARKS
ALGONA *       CLOUDY    70  68  94 S21G28    29.67F
CLARION *        N/A     70  70 100 S25G36    29.73R
ESTHERVILLE    CLOUDY    68  67  96 S18G30    29.63R
FORT DODGE *   CLOUDY    70  63  78 S22G31    29.75R
MASON CITY     CLOUDY    69  61  75 S15G25    29.72R
FOREST CITY *  LGT RAIN  66  59  77 SW14G23   29.68F
WEBSTER CITY * CLOUDY    70  66  88 S20G28    29.75R
IOWA FALLS *   LGT RAIN  69  62  80 SW20G25   29.74S
$$

IAZ007>011-017>019-026>030-037>042-050>054-066-281100-
   NORTHEAST IOWA

CITY           SKY/WX    TMP DP  RH WIND       PRES   REMARKS
CEDAR RAPIDS   LGT RAIN  65  59  81 S13       29.83S
CHARLES CITY * CLOUDY    63  61  94 SE9       29.76R
CLINTON *      CLOUDY    63  54  72 S12       29.89F
DECORAH *      HVY RAIN  59  57  94 S14G20    29.76F
DUBUQUE        CLOUDY    64  52  64 S18G24    29.86F
MONTICELLO *   CLOUDY    64  54  68 SE10      29.83F
OELWEIN *      RAIN      61  59  94 SE21G28   29.76F
WATERLOO       LGT RAIN  65  57  75 S15G26    29.72F
$$

IAZ064-065-067-068-078-281100-
   EAST CENTRAL IOWA

CITY           SKY/WX    TMP DP  RH WIND       PRES   REMARKS
IOWA CITY      LGT RAIN  66  59  78 S13       29.84F
MT. PLEASANT * CLOUDY    68  58  70 S15       29.87F
MUSCATINE *    CLOUDY    68  55  64 S9        29.87F
QUAD CITIES    CLOUDY    65  53  65 S10       29.89F
$$

IAZ062-063-075>077-085>089-095>099-281100-
   SOUTHEAST IOWA

CITY           SKY/WX    TMP DP  RH WIND       PRES   REMARKS
BURLINGTON     CLOUDY    67  59  75 S15       29.89F
FAIRFIELD *    CLOUDY    70  59  68 S17G24    29.83F
FORT MADISON * CLOUDY    66  61  82 S13       29.89F
KEOKUK *       CLOUDY    70  61  73 S14G25    29.88F
OSKALOOSA *    MOCLDY    69  61  75 S14G22    29.80F
OTTUMWA        CLOUDY    70  62  76 S14G22    29.81F
WASHINGTON *   CLOUDY    70  59  68 S15G22    29.84F
$$

ABBREVIATIONS USED IN REMARKS
   TC - TEMPERATURES IN CELSIUS
  WCI - WIND CHILL INDEX
   HX - HEAT INDEX
  VSB - VISIBILITY
$$





USA.gov is the U.S. government's official web portal to all federal, state and local government web resources and services.